Powrót do katalogu

APEX R/B

AktywnyLEO
NORAD 23198·ROCKET BODY·🇺🇸 United States

Wystrzelony Aug 3, 1994 z Vandenberg Space Force Base

Loading…

Następne Przeloty (najbliższe 24 godziny)

TLE

ŚwieżeSource: Space-Track

Epoka: Sep 14, 2026, 13:01 UTC

1 23198U 94046B   26257.54266826  .00011184  00000-0  37930-3 0  9997
2 23198  69.9172 287.0149 0620007 291.7750  61.8514 14.34168821559884

Śledź APEX R/B w czasie rzeczywistym z AllMySat

Download on the App Store